This demonstration page uses our WeatherBlox Daily Observations layout. Learn more.

Left ArrowRight Arrow

44.8408, -93.29828

Hourly Observations for March 29, 2018

Temp ( °F °C ) Dew Point ( °F °C ) Humidity (%) Winds ( mph kmh ) Pressure ( in mb ) Visibility ( mi km ) Precip ( " mm )
12:53 am 00:53 Partly Cloudy 30 -1.1 23 -5 75 75 NNW 16 26 30.04 1017 10 16 0.00 0.00
1:53 am 01:53 Mostly Clear 29 -1.7 22 -5.6 75 75 NNW 13 20 30.05 1018 10 16 0.00 0.00
2:53 am 02:53 Mostly Clear 27 -2.8 20 -6.7 75 75 NNW 15 24 30.06 1018 10 16 0.00 0.00
3:53 am 03:53 Clear 26 -3.3 19 -7.2 75 75 NNW 14 22 30.08 1019 10 16 0.00 0.00
4:53 am 04:53 Clear 25 -3.9 18 -7.8 75 75 NNW 15 24 30.09 1019 10 16 0.00 0.00
5:53 am 05:53 Clear 24 -4.4 17 -8.3 75 75 NNW 14 22 30.10 1019 10 16 0.00 0.00
6:53 am 06:53 Mostly Clear 23 -5 16 -8.9 74 74 NNW 10 17 30.13 1020 10 16 0.00 0.00
7:53 am 07:53 Sunny 24 -4.4 16 -8.9 71 71 N 10 17 30.16 1021 10 16 0.00 0.00
8:53 am 08:53 Sunny 26 -3.3 15 -9.4 63 63 N 12 19 30.17 1022 10 16 0.00 0.00
9:53 am 09:53 Sunny 28 -2.2 15 -9.4 58 58 N 10 17 30.18 1022 10 16 0.00 0.00
10:53 am 10:53 Sunny 31 -0.6 14 -10 49 49 N 13 20 30.19 1022 10 16 0.00 0.00
11:53 am 11:53 Sunny 34 1.1 14 -10 44 44 N 9 15 30.18 1022 10 16 0.00 0.00
12:53 pm 12:53 Mostly Sunny 35 1.7 14 -10 42 42 NNW 13 20 30.15 1021 10 16 0.00 0.00
1:53 pm 13:53 Mostly Sunny 37 2.8 15 -9.4 41 41 NNW 12 19 30.14 1021 10 16 0.00 0.00
2:53 pm 14:53 Mostly Sunny 39 3.9 16 -8.9 39 39 NNW 8 13 30.13 1020 10 16 0.00 0.00
3:53 pm 15:53 Mostly Sunny 41 5 15 -9.4 35 35 NNW 13 20 30.14 1021 10 16 0.00 0.00
4:53 pm 16:53 Mostly Sunny 41 5 16 -8.9 36 36 NNW 15 24 30.14 1021 10 16 0.00 0.00
5:53 pm 17:53 Mostly Sunny 41 5 18 -7.8 39 39 N 12 19 30.16 1021 10 16 0.00 0.00
6:53 pm 18:53 Sunny 39 3.9 18 -7.8 43 43 NNW 7 11 30.17 1022 10 16 0.00 0.00
7:53 pm 19:53 Clear 35 1.7 19 -7.2 52 52 NW 9 15 30.19 1022 10 16 0.00 0.00
8:53 pm 20:53 Partly Cloudy 33 0.6 19 -7.2 56 56 NW 6 9 30.21 1023 10 16 0.00 0.00
9:53 pm 21:53 Mostly Cloudy 33 0.6 19 -7.2 56 56 WNW 6 9 30.23 1024 10 16 0.00 0.00
10:53 pm 22:53 Partly Cloudy 31 -0.6 18 -7.8 59 59 NW 7 11 30.23 1024 10 16 0.00 0.00
11:53 pm 23:53 Partly Cloudy 32 0 17 -8.3 54 54 NNW 15 24 30.23 1024 10 16 0.00 0.00

Powered by AerisWeather